Terminal Aerodrome Forecast
Issued by NWS

Home | Current Version | Previous Version | Graphics & Text | Print | Product List | Glossary On
Versions: 1 2 3 4 5 6 7 8 9 10 11 12 13 14
876
FTUS43 KMPX 222320
TAFRNH
TAF
KRNH 222320Z 2300/2324 18013G21KT P6SM FEW110
     FM230400 18012KT P6SM SKC WS020/22045KT
     FM231700 19013G19KT P6SM SKC=

USA.gov is the U.S. government's official web portal to all federal, state and local government web resources and services.